Year,Month,Day,Hour,Minute,Value (Times are PST for windspeed in km/hr)
2016,03,11,00,00,6.50
2016,03,11,00,01,8.00
2016,03,11,00,02,10.30
2016,03,11,00,03,8.30
2016,03,11,00,04,8.50
2016,03,11,00,05,12.00
2016,03,11,00,06,10.60
2016,03,11,00,07,7.70
2016,03,11,00,08,7.30
2016,03,11,00,09,5.80
2016,03,11,00,10,6.80
2016,03,11,00,11,4.10
2016,03,11,00,12,7.20
2016,03,11,00,13,5.10
2016,03,11,00,14,7.70
2016,03,11,00,15,5.90
2016,03,11,00,16,5.00
2016,03,11,00,17,5.90
2016,03,11,00,18,6.40
2016,03,11,00,19,3.80
2016,03,11,00,20,6.90
2016,03,11,00,21,4.90
2016,03,11,00,22,6.00
2016,03,11,00,23,6.20
2016,03,11,00,24,4.60
2016,03,11,00,25,4.10
2016,03,11,00,26,6.10
2016,03,11,00,27,6.80
2016,03,11,00,28,8.90
2016,03,11,00,29,10.60
2016,03,11,00,30,7.20
2016,03,11,00,31,4.50
2016,03,11,00,32,3.50
2016,03,11,00,33,4.70
2016,03,11,00,34,7.10
2016,03,11,00,35,6.80
2016,03,11,00,36,7.70
2016,03,11,00,37,7.70
2016,03,11,00,38,9.70
2016,03,11,00,39,7.10
2016,03,11,00,40,8.40
2016,03,11,00,41,10.10
2016,03,11,00,42,9.30
2016,03,11,00,43,5.10
2016,03,11,00,44,8.80
2016,03,11,00,45,6.80
2016,03,11,00,46,6.10
2016,03,11,00,47,5.40
2016,03,11,00,48,6.20
2016,03,11,00,49,6.10
2016,03,11,00,50,6.00
2016,03,11,00,51,6.80
2016,03,11,00,52,7.80
2016,03,11,00,53,6.70
2016,03,11,00,54,5.70
2016,03,11,00,55,7.50
2016,03,11,00,56,9.70
2016,03,11,00,57,7.80
2016,03,11,00,58,7.10
2016,03,11,00,59,8.40
2016,03,11,01,00,9.40
2016,03,11,01,01,7.00
2016,03,11,01,02,6.40
2016,03,11,01,03,4.70
2016,03,11,01,04,3.50
2016,03,11,01,05,2.60
2016,03,11,01,06,4.40
2016,03,11,01,07,3.80
2016,03,11,01,08,3.60
2016,03,11,01,09,2.40
2016,03,11,01,11,1.60
2016,03,11,01,14,3.80
2016,03,11,01,15,4.80
2016,03,11,01,16,4.50
2016,03,11,01,17,3.50
2016,03,11,01,18,4.60
2016,03,11,01,19,5.30
2016,03,11,01,20,5.20
2016,03,11,01,21,8.60
2016,03,11,01,22,4.70
2016,03,11,01,23,7.10
2016,03,11,01,24,7.10
2016,03,11,01,25,6.90
2016,03,11,01,26,4.50
2016,03,11,01,27,6.00
2016,03,11,01,28,6.10
2016,03,11,01,29,8.60
2016,03,11,01,30,8.90
2016,03,11,01,31,11.30
2016,03,11,01,32,11.70
2016,03,11,01,33,10.20
2016,03,11,01,34,10.80
2016,03,11,01,35,9.70
2016,03,11,01,36,10.50
2016,03,11,01,37,14.00
2016,03,11,01,38,11.00
2016,03,11,01,39,13.50
2016,03,11,01,40,8.40
2016,03,11,01,41,7.60
2016,03,11,01,42,4.90
2016,03,11,01,43,6.00
2016,03,11,01,44,8.20
2016,03,11,01,45,12.60
2016,03,11,01,46,10.90
2016,03,11,01,47,10.60
2016,03,11,01,48,11.30
2016,03,11,01,49,13.80
2016,03,11,01,50,11.30
2016,03,11,01,51,9.70
2016,03,11,01,52,12.20
2016,03,11,01,53,5.90
2016,03,11,01,54,2.70
2016,03,11,01,55,6.60
2016,03,11,01,56,6.40
2016,03,11,01,57,8.40
2016,03,11,01,58,8.70
2016,03,11,01,59,7.80
2016,03,11,02,00,7.00
2016,03,11,02,01,5.70
2016,03,11,02,02,7.70
2016,03,11,02,03,3.80
2016,03,11,02,04,8.60
2016,03,11,02,05,6.70
2016,03,11,02,06,10.40
2016,03,11,02,07,5.30
2016,03,11,02,08,8.50
2016,03,11,02,09,4.80
2016,03,11,02,10,7.50
2016,03,11,02,11,4.70
2016,03,11,02,12,2.90
2016,03,11,02,13,4.10
2016,03,11,02,14,3.10
2016,03,11,02,19,5.10
2016,03,11,02,20,6.70
2016,03,11,02,21,4.90
2016,03,11,02,22,6.40
2016,03,11,02,23,6.00
2016,03,11,02,24,8.90
2016,03,11,02,25,5.90
2016,03,11,02,26,5.80
2016,03,11,02,27,6.60
2016,03,11,02,28,10.50
2016,03,11,02,29,8.60
2016,03,11,02,30,8.10
2016,03,11,02,31,10.10
2016,03,11,02,32,10.10
2016,03,11,02,33,9.60
2016,03,11,02,34,8.00
2016,03,11,02,35,9.00
2016,03,11,02,36,6.30
2016,03,11,02,37,8.20
2016,03,11,02,38,6.40
2016,03,11,02,39,4.60
2016,03,11,02,40,4.30
2016,03,11,02,41,4.90
2016,03,11,02,42,6.60
2016,03,11,02,43,6.50
2016,03,11,02,44,8.10
2016,03,11,02,45,12.30
2016,03,11,02,46,10.20
2016,03,11,02,47,7.30
2016,03,11,02,48,6.90
2016,03,11,02,49,5.20
2016,03,11,02,50,7.50
2016,03,11,02,51,6.20
2016,03,11,02,52,8.60
2016,03,11,02,53,7.60
2016,03,11,02,54,8.10
2016,03,11,02,55,6.90
2016,03,11,02,56,7.70
2016,03,11,02,57,8.00
2016,03,11,02,58,12.60
2016,03,11,02,59,8.10
2016,03,11,03,00,9.40
2016,03,11,03,01,10.10
2016,03,11,03,02,11.20
2016,03,11,03,03,7.10
2016,03,11,03,04,4.20
2016,03,11,03,05,7.40
2016,03,11,03,06,7.20
2016,03,11,03,07,7.30
2016,03,11,03,08,11.90
2016,03,11,03,09,9.10
2016,03,11,03,10,10.70
2016,03,11,03,11,15.00
2016,03,11,03,12,10.40
2016,03,11,03,13,8.00
2016,03,11,03,14,10.50
2016,03,11,03,15,9.00
2016,03,11,03,16,8.40
2016,03,11,03,17,9.80
2016,03,11,03,18,11.20
2016,03,11,03,19,10.80
2016,03,11,03,20,6.00
2016,03,11,03,21,11.80
2016,03,11,03,22,13.90
2016,03,11,03,23,12.90
2016,03,11,03,24,10.60
2016,03,11,03,25,6.50
2016,03,11,03,26,12.90
2016,03,11,03,27,12.20
2016,03,11,03,28,10.00
2016,03,11,03,29,10.90
2016,03,11,03,30,11.50
2016,03,11,03,31,18.40
2016,03,11,03,32,12.80
2016,03,11,03,33,12.80
2016,03,11,03,34,10.60
2016,03,11,03,35,9.70
2016,03,11,03,36,13.50
2016,03,11,03,37,8.20
2016,03,11,03,38,13.00
2016,03,11,03,39,11.80
2016,03,11,03,40,9.30
2016,03,11,03,41,5.50
2016,03,11,03,42,7.10
2016,03,11,03,43,11.80
2016,03,11,03,44,7.70
2016,03,11,03,45,3.70
2016,03,11,03,46,3.70
2016,03,11,03,47,7.10
2016,03,11,03,48,8.40
2016,03,11,03,49,7.20
2016,03,11,03,50,4.90
2016,03,11,03,51,4.20
2016,03,11,03,53,5.80
2016,03,11,03,54,6.30
2016,03,11,03,55,3.70
2016,03,11,03,56,3.60
2016,03,11,03,57,9.10
2016,03,11,03,58,6.40
2016,03,11,03,59,5.30
2016,03,11,04,00,10.90
2016,03,11,04,01,12.50
2016,03,11,04,02,12.60
2016,03,11,04,03,9.30
2016,03,11,04,04,10.30
2016,03,11,04,05,5.70
2016,03,11,04,06,11.30
2016,03,11,04,07,8.10
2016,03,11,04,08,7.20
2016,03,11,04,09,4.00
2016,03,11,04,10,5.70
2016,03,11,04,11,11.10
2016,03,11,04,12,8.50
2016,03,11,04,13,9.00
2016,03,11,04,14,7.70
2016,03,11,04,15,6.20
2016,03,11,04,16,9.30
2016,03,11,04,17,8.50
2016,03,11,04,18,10.40
2016,03,11,04,19,9.60
2016,03,11,04,20,6.00
2016,03,11,04,21,7.40
2016,03,11,04,22,9.30
2016,03,11,04,23,8.50
2016,03,11,04,24,10.40
2016,03,11,04,25,12.20
2016,03,11,04,26,16.30
2016,03,11,04,27,9.80
2016,03,11,04,28,7.60
2016,03,11,04,29,17.40
2016,03,11,04,30,13.80
2016,03,11,04,31,13.30
2016,03,11,04,32,8.00
2016,03,11,04,33,7.30
2016,03,11,04,34,12.40
2016,03,11,04,35,8.50
2016,03,11,04,36,15.30
2016,03,11,04,37,10.50
2016,03,11,04,38,12.00
2016,03,11,04,39,12.30
2016,03,11,04,40,14.90
2016,03,11,04,41,16.50
2016,03,11,04,42,15.80
2016,03,11,04,43,16.80
2016,03,11,04,44,12.80
2016,03,11,04,45,6.90
2016,03,11,04,46,9.60
2016,03,11,04,47,13.00
2016,03,11,04,48,12.40
2016,03,11,04,49,16.00
2016,03,11,04,50,9.60
2016,03,11,04,51,13.00
2016,03,11,04,52,16.60
2016,03,11,04,53,9.10
2016,03,11,04,54,10.90
2016,03,11,04,55,11.60
2016,03,11,04,56,5.00
2016,03,11,04,57,10.40
2016,03,11,04,58,16.90
2016,03,11,04,59,9.10
2016,03,11,05,00,7.20
2016,03,11,05,01,9.50
2016,03,11,05,02,6.90
2016,03,11,05,03,9.00
2016,03,11,05,04,6.80
2016,03,11,05,05,14.30
2016,03,11,05,06,12.20
2016,03,11,05,07,10.50
2016,03,11,05,08,11.50
2016,03,11,05,09,12.20
2016,03,11,05,10,8.70
2016,03,11,05,11,13.00
2016,03,11,05,12,11.20
2016,03,11,05,13,12.50
2016,03,11,05,14,11.30
2016,03,11,05,15,10.60
2016,03,11,05,16,8.60
2016,03,11,05,17,8.40
2016,03,11,05,18,8.00
2016,03,11,05,19,8.80
2016,03,11,05,20,8.80
2016,03,11,05,21,9.80
2016,03,11,05,22,15.10
2016,03,11,05,23,11.80
2016,03,11,05,24,11.50
2016,03,11,05,25,11.00
2016,03,11,05,26,9.00
2016,03,11,05,27,8.70
2016,03,11,05,28,10.10
2016,03,11,05,29,12.90
2016,03,11,05,30,4.40
2016,03,11,05,31,7.00
2016,03,11,05,32,8.60
2016,03,11,05,33,9.30
2016,03,11,05,34,9.00
2016,03,11,05,35,11.20
2016,03,11,05,36,6.80
2016,03,11,05,37,13.30
2016,03,11,05,38,8.50
2016,03,11,05,39,11.00
2016,03,11,05,40,15.90
2016,03,11,05,41,10.60
2016,03,11,05,42,11.90
2016,03,11,05,43,8.40
2016,03,11,05,44,3.90
2016,03,11,05,45,6.90
2016,03,11,05,46,4.40
2016,03,11,05,47,10.90
2016,03,11,05,48,5.20
2016,03,11,05,49,11.70
2016,03,11,05,50,4.70
2016,03,11,05,51,7.70
2016,03,11,05,52,9.10
2016,03,11,05,53,12.80
2016,03,11,05,54,13.20
2016,03,11,05,55,9.00
2016,03,11,05,56,7.30
2016,03,11,05,57,9.50
2016,03,11,05,58,9.90
2016,03,11,05,59,12.00
2016,03,11,06,00,10.90
2016,03,11,06,01,12.70
2016,03,11,06,02,9.30
2016,03,11,06,03,10.30
2016,03,11,06,04,12.60
2016,03,11,06,05,9.40
2016,03,11,06,06,14.20
2016,03,11,06,07,7.60
2016,03,11,06,08,8.40
2016,03,11,06,09,12.60
2016,03,11,06,10,7.70
2016,03,11,06,11,8.40
2016,03,11,06,12,8.80
2016,03,11,06,13,6.20
2016,03,11,06,14,10.50
2016,03,11,06,15,10.40
2016,03,11,06,16,10.90
2016,03,11,06,17,10.80
2016,03,11,06,18,13.40
2016,03,11,06,19,15.90
2016,03,11,06,20,8.10
2016,03,11,06,21,7.10
2016,03,11,06,22,6.50
2016,03,11,06,23,5.80
2016,03,11,06,24,8.10
2016,03,11,06,25,13.80
2016,03,11,06,26,11.20
2016,03,11,06,27,10.80
2016,03,11,06,28,11.40
2016,03,11,06,29,15.00
2016,03,11,06,30,12.10
2016,03,11,06,31,12.90
2016,03,11,06,32,11.40
2016,03,11,06,33,13.70
2016,03,11,06,34,8.50
2016,03,11,06,35,9.40
2016,03,11,06,36,9.20
2016,03,11,06,37,6.60
2016,03,11,06,38,10.40
2016,03,11,06,39,9.50
2016,03,11,06,40,6.10
2016,03,11,06,41,9.80
2016,03,11,06,42,13.40
2016,03,11,06,43,10.50
2016,03,11,06,44,7.60
2016,03,11,06,45,11.30
2016,03,11,06,46,9.20
2016,03,11,06,47,10.40
2016,03,11,06,48,10.40
2016,03,11,06,49,9.10
2016,03,11,06,50,6.00
2016,03,11,06,51,5.80
2016,03,11,06,52,10.40
2016,03,11,06,53,9.90
2016,03,11,06,54,9.70
2016,03,11,06,55,8.00
2016,03,11,06,56,4.20
2016,03,11,06,57,4.60
2016,03,11,06,58,3.90
2016,03,11,06,59,9.10
2016,03,11,07,00,9.40
2016,03,11,07,01,10.40
2016,03,11,07,02,6.50
2016,03,11,07,03,11.50
2016,03,11,07,04,12.00
2016,03,11,07,05,9.40
2016,03,11,07,06,14.50
2016,03,11,07,07,9.80
2016,03,11,07,08,10.20
2016,03,11,07,09,10.80
2016,03,11,07,10,7.10
2016,03,11,07,11,8.20
2016,03,11,07,12,8.50
2016,03,11,07,13,8.70
2016,03,11,07,14,7.80
2016,03,11,07,15,10.00
2016,03,11,07,16,11.00
2016,03,11,07,17,13.30
2016,03,11,07,18,10.30
2016,03,11,07,19,13.30
2016,03,11,07,20,11.70
2016,03,11,07,21,7.20
2016,03,11,07,22,8.30
2016,03,11,07,23,13.10
2016,03,11,07,24,15.40
2016,03,11,07,25,10.50
2016,03,11,07,26,17.40
2016,03,11,07,27,15.90
2016,03,11,07,28,15.20
2016,03,11,07,29,13.00
2016,03,11,07,30,11.50
2016,03,11,07,31,14.50
2016,03,11,07,32,17.90
2016,03,11,07,33,15.10
2016,03,11,07,34,11.10
2016,03,11,07,35,17.40
2016,03,11,07,36,15.00
2016,03,11,07,37,14.60
2016,03,11,07,38,17.20
2016,03,11,07,39,15.90
2016,03,11,07,40,17.20
2016,03,11,07,41,17.70
2016,03,11,07,42,12.60
2016,03,11,07,43,18.40
2016,03,11,07,44,21.70
2016,03,11,07,45,18.50
2016,03,11,07,46,7.40
2016,03,11,07,47,13.00
2016,03,11,07,48,12.70
2016,03,11,07,49,10.40
2016,03,11,07,50,9.80
2016,03,11,07,51,17.10
2016,03,11,07,52,12.00
2016,03,11,07,53,13.00
2016,03,11,07,54,7.40
2016,03,11,07,55,14.90
2016,03,11,07,56,7.40
2016,03,11,07,57,13.80
2016,03,11,07,58,14.10
2016,03,11,07,59,11.30
2016,03,11,08,00,16.20
2016,03,11,08,01,12.10
2016,03,11,08,02,15.40
2016,03,11,08,03,17.30
2016,03,11,08,04,11.60
2016,03,11,08,05,21.30
2016,03,11,08,06,10.90
2016,03,11,08,07,6.60
2016,03,11,08,08,14.60
2016,03,11,08,09,18.10
2016,03,11,08,10,12.10
2016,03,11,08,11,11.80
2016,03,11,08,12,13.20
2016,03,11,08,13,12.60
2016,03,11,08,14,9.40
2016,03,11,08,15,8.00
2016,03,11,08,16,11.00
2016,03,11,08,17,13.20
2016,03,11,08,18,9.10
2016,03,11,08,19,6.40
2016,03,11,08,20,7.60
2016,03,11,08,21,15.80
2016,03,11,08,22,14.60
2016,03,11,08,23,8.70
2016,03,11,08,24,12.00
2016,03,11,08,25,8.70
2016,03,11,08,26,9.20
2016,03,11,08,27,7.70
2016,03,11,08,28,10.50
2016,03,11,08,29,9.90
2016,03,11,08,30,12.60
2016,03,11,08,31,11.30
2016,03,11,08,32,12.60
2016,03,11,08,33,10.60
2016,03,11,08,34,10.10
2016,03,11,08,35,9.00
2016,03,11,08,36,9.20
2016,03,11,08,37,7.70
2016,03,11,08,38,10.70
2016,03,11,08,39,8.90
2016,03,11,08,40,8.40
2016,03,11,08,41,8.50
2016,03,11,08,42,9.90
2016,03,11,08,43,10.20
2016,03,11,08,44,8.00
2016,03,11,08,45,12.30
2016,03,11,08,46,8.80
2016,03,11,08,47,11.60
2016,03,11,08,48,19.00
2016,03,11,08,49,11.90
2016,03,11,08,50,9.90
2016,03,11,08,51,12.70
2016,03,11,08,52,12.90
2016,03,11,08,53,17.10
2016,03,11,08,54,9.30
2016,03,11,08,55,8.90
2016,03,11,08,56,8.50
2016,03,11,08,57,13.10
2016,03,11,08,58,12.90
2016,03,11,08,59,8.50
2016,03,11,09,00,8.20
2016,03,11,09,01,8.60
2016,03,11,09,02,11.70
2016,03,11,09,03,17.60
2016,03,11,09,04,19.20
2016,03,11,09,05,15.80
2016,03,11,09,06,20.40
2016,03,11,09,07,20.70
2016,03,11,09,08,17.60
2016,03,11,09,09,9.70
2016,03,11,09,10,10.10
2016,03,11,09,11,13.60
2016,03,11,09,12,15.60
2016,03,11,09,13,11.90
2016,03,11,09,14,14.60
2016,03,11,09,15,16.00
2016,03,11,09,16,12.60
2016,03,11,09,17,11.80
2016,03,11,09,18,15.90
2016,03,11,09,19,11.00
2016,03,11,09,20,6.10
2016,03,11,09,21,10.00
2016,03,11,09,22,8.40
2016,03,11,09,23,14.20
2016,03,11,09,24,8.70
2016,03,11,09,25,10.80
2016,03,11,09,26,10.70
2016,03,11,09,27,10.50
2016,03,11,09,28,12.60
2016,03,11,09,29,15.30
2016,03,11,09,30,12.00
2016,03,11,09,31,13.40
2016,03,11,09,32,11.50
2016,03,11,09,33,10.00
2016,03,11,09,34,15.00
2016,03,11,09,35,11.00
2016,03,11,09,36,11.80
2016,03,11,09,37,7.60
2016,03,11,09,38,10.20
2016,03,11,09,39,10.60
2016,03,11,09,40,11.40
2016,03,11,09,41,15.50
2016,03,11,09,42,14.20
2016,03,11,09,43,10.90
2016,03,11,09,44,8.40
2016,03,11,09,45,9.30
2016,03,11,09,46,11.40
2016,03,11,09,47,12.30
2016,03,11,09,48,5.70
2016,03,11,09,49,10.40
2016,03,11,09,50,9.40
2016,03,11,09,51,9.80
2016,03,11,09,52,12.10
2016,03,11,09,53,16.10
2016,03,11,09,54,10.20
2016,03,11,09,55,7.90
2016,03,11,09,56,5.60
2016,03,11,09,57,9.90
2016,03,11,09,58,6.00
2016,03,11,09,59,11.40
2016,03,11,10,00,10.50
2016,03,11,10,01,10.80
2016,03,11,10,02,8.50
2016,03,11,10,03,12.50
2016,03,11,10,04,9.80
2016,03,11,10,05,10.60
2016,03,11,10,06,8.70
2016,03,11,10,07,9.30
2016,03,11,10,08,13.00
2016,03,11,10,09,9.30
2016,03,11,10,10,11.20
2016,03,11,10,11,11.60
2016,03,11,10,12,10.50
2016,03,11,10,13,11.20
2016,03,11,10,14,11.30
2016,03,11,10,15,18.20
2016,03,11,10,16,11.50
2016,03,11,10,17,14.50
2016,03,11,10,18,9.60
2016,03,11,10,19,8.70
2016,03,11,10,20,10.10
2016,03,11,10,21,16.70
2016,03,11,10,22,13.20
2016,03,11,10,23,9.90
2016,03,11,10,24,8.80
2016,03,11,10,25,12.30
2016,03,11,10,26,9.30
2016,03,11,10,27,15.80
2016,03,11,10,28,12.80
2016,03,11,10,29,10.20
2016,03,11,10,30,11.10
2016,03,11,10,31,9.20
2016,03,11,10,32,12.50
2016,03,11,10,33,12.90
2016,03,11,10,34,15.50
2016,03,11,10,35,11.10
2016,03,11,10,36,10.30
2016,03,11,10,37,14.30
2016,03,11,10,38,15.80
2016,03,11,10,39,14.20
2016,03,11,10,40,11.70
2016,03,11,10,41,10.20
2016,03,11,10,42,12.40
2016,03,11,10,43,6.50
2016,03,11,10,44,10.10
2016,03,11,10,45,16.80
2016,03,11,10,46,12.00
2016,03,11,10,47,6.10
2016,03,11,10,48,13.10
2016,03,11,10,49,16.50
2016,03,11,10,50,21.00
2016,03,11,10,51,17.60
2016,03,11,10,52,12.40
2016,03,11,10,53,7.50
2016,03,11,10,54,10.10
2016,03,11,10,55,17.00
2016,03,11,10,56,17.30
2016,03,11,10,57,15.40
2016,03,11,10,58,10.20
2016,03,11,10,59,11.50
2016,03,11,11,00,10.40
2016,03,11,11,01,14.60
2016,03,11,11,02,12.70
2016,03,11,11,03,10.60
2016,03,11,11,04,10.20
2016,03,11,11,05,12.70
2016,03,11,11,06,9.80
2016,03,11,11,07,16.20
2016,03,11,11,08,6.60
2016,03,11,11,09,13.00
2016,03,11,11,10,13.20
2016,03,11,11,11,8.90
2016,03,11,11,12,15.50
2016,03,11,11,13,10.20
2016,03,11,11,14,12.30
2016,03,11,11,15,18.20
2016,03,11,11,16,17.00
2016,03,11,11,17,14.60
2016,03,11,11,18,15.10
2016,03,11,11,19,11.70
2016,03,11,11,20,14.20
2016,03,11,11,21,10.90
2016,03,11,11,22,8.30
2016,03,11,11,23,8.70
2016,03,11,11,24,10.90
2016,03,11,11,25,10.00
2016,03,11,11,26,9.50
2016,03,11,11,27,14.60
2016,03,11,11,28,7.60
2016,03,11,11,29,10.00
2016,03,11,11,30,9.40
2016,03,11,11,31,8.80
2016,03,11,11,32,11.60
2016,03,11,11,33,11.40
2016,03,11,11,34,14.70
2016,03,11,11,35,11.30
2016,03,11,11,36,7.20
2016,03,11,11,37,9.10
2016,03,11,11,38,7.50
2016,03,11,11,39,14.00
2016,03,11,11,40,10.80
2016,03,11,11,41,7.60
2016,03,11,11,42,7.20
2016,03,11,11,43,8.80
2016,03,11,11,44,8.50
2016,03,11,11,45,6.60
2016,03,11,11,46,11.90
2016,03,11,11,47,7.00
2016,03,11,11,48,8.10
2016,03,11,11,49,7.10
2016,03,11,11,50,7.20
2016,03,11,11,51,8.90
2016,03,11,11,52,9.10
2016,03,11,11,53,7.20
2016,03,11,11,54,11.90
2016,03,11,11,55,7.90
2016,03,11,11,56,8.80
2016,03,11,11,57,8.50
2016,03,11,11,58,8.40
2016,03,11,11,59,7.50
2016,03,11,12,00,6.20
2016,03,11,12,01,4.80
2016,03,11,12,02,6.70
2016,03,11,12,03,6.70
2016,03,11,12,04,6.40
2016,03,11,12,05,6.90
2016,03,11,12,06,8.10
2016,03,11,12,07,15.40
2016,03,11,12,08,13.00
2016,03,11,12,09,5.40
2016,03,11,12,10,4.80
2016,03,11,12,11,6.60
2016,03,11,12,12,5.70
2016,03,11,12,13,14.00
2016,03,11,12,14,16.10
2016,03,11,12,15,15.10
2016,03,11,12,16,7.20
2016,03,11,12,17,6.40
2016,03,11,12,18,7.80
2016,03,11,12,19,9.00
2016,03,11,12,20,15.90
2016,03,11,12,21,9.10
2016,03,11,12,22,19.50
2016,03,11,12,23,12.90
2016,03,11,12,24,13.90
2016,03,11,12,25,12.60
2016,03,11,12,26,11.70
2016,03,11,12,27,10.90
2016,03,11,12,28,18.80
2016,03,11,12,29,8.30
2016,03,11,12,30,14.60
2016,03,11,12,31,17.80
2016,03,11,12,32,13.30
2016,03,11,12,33,10.90
2016,03,11,12,34,15.30
2016,03,11,12,35,10.90
2016,03,11,12,36,16.50
2016,03,11,12,37,10.00
2016,03,11,12,38,15.50
2016,03,11,12,39,13.90
2016,03,11,12,40,14.60
2016,03,11,12,41,7.80
2016,03,11,12,42,9.40
2016,03,11,12,43,12.30
2016,03,11,12,44,12.90
2016,03,11,12,45,9.60
2016,03,11,12,46,8.00
2016,03,11,12,47,8.50
2016,03,11,12,48,9.80
2016,03,11,12,49,15.50
2016,03,11,12,50,15.80
2016,03,11,12,51,16.20
2016,03,11,12,52,12.60
2016,03,11,12,53,11.30
2016,03,11,12,54,12.80
2016,03,11,12,55,14.50
2016,03,11,12,56,12.30
2016,03,11,12,57,12.70
2016,03,11,12,58,11.30
2016,03,11,12,59,14.00
2016,03,11,13,00,14.20
2016,03,11,13,01,14.60
2016,03,11,13,02,4.70
2016,03,11,13,03,9.10
2016,03,11,13,04,5.50
2016,03,11,13,05,3.30
2016,03,11,13,06,2.50
2016,03,11,13,07,7.90
2016,03,11,13,08,9.70
2016,03,11,13,09,5.20
2016,03,11,13,10,10.00
2016,03,11,13,11,9.90
2016,03,11,13,12,17.60
2016,03,11,13,13,16.80
2016,03,11,13,14,13.10
2016,03,11,13,15,5.80
2016,03,11,13,16,9.10
2016,03,11,13,17,8.40
2016,03,11,13,18,8.10
2016,03,11,13,19,12.90
2016,03,11,13,20,11.70
2016,03,11,13,21,9.30
2016,03,11,13,22,13.00
2016,03,11,13,23,6.80
2016,03,11,13,24,7.00
2016,03,11,13,25,5.80
2016,03,11,13,26,3.50
2016,03,11,13,27,11.70
2016,03,11,13,28,8.50
2016,03,11,13,29,2.90
2016,03,11,13,30,7.20
2016,03,11,13,31,7.20
2016,03,11,13,32,6.20
2016,03,11,13,33,6.00
2016,03,11,13,34,4.70
2016,03,11,13,35,5.70
2016,03,11,13,36,2.80
2016,03,11,13,37,3.70
2016,03,11,13,38,7.40
2016,03,11,13,39,7.80
2016,03,11,13,40,4.80
2016,03,11,13,41,8.20
2016,03,11,13,42,5.60
2016,03,11,13,43,7.30
2016,03,11,13,44,7.20
2016,03,11,13,45,8.30
2016,03,11,13,46,7.90
2016,03,11,13,47,7.80
2016,03,11,13,48,4.80
2016,03,11,13,49,4.30
2016,03,11,13,50,3.70
2016,03,11,13,51,4.10
2016,03,11,13,52,4.10
2016,03,11,13,53,6.60
2016,03,11,13,54,6.70
2016,03,11,13,55,5.80
2016,03,11,13,56,5.60
2016,03,11,13,57,4.80
2016,03,11,13,58,6.80
2016,03,11,13,59,7.50
2016,03,11,14,00,8.00
2016,03,11,14,01,7.20
2016,03,11,14,02,10.40
2016,03,11,14,03,10.30
2016,03,11,14,04,8.80
2016,03,11,14,05,9.60
2016,03,11,14,06,9.20
2016,03,11,14,07,12.20
2016,03,11,14,08,8.90
2016,03,11,14,09,9.70
2016,03,11,14,10,5.00
2016,03,11,14,11,5.30
2016,03,11,14,12,4.80
2016,03,11,14,13,3.30
2016,03,11,14,14,6.10
2016,03,11,14,15,9.00
2016,03,11,14,16,6.90
2016,03,11,14,17,6.80
2016,03,11,14,18,5.50
2016,03,11,14,19,6.80
2016,03,11,14,20,4.60
2016,03,11,14,21,7.50
2016,03,11,14,22,5.80
2016,03,11,14,23,7.90
2016,03,11,14,24,6.20
2016,03,11,14,25,5.40
2016,03,11,14,26,5.80
2016,03,11,14,27,5.60
2016,03,11,14,28,6.10
2016,03,11,14,29,8.90
2016,03,11,14,30,8.30
2016,03,11,14,31,10.10
2016,03,11,14,32,8.50
2016,03,11,14,33,10.00
2016,03,11,14,34,13.10
2016,03,11,14,35,8.00
2016,03,11,14,36,5.60
2016,03,11,14,37,6.90
2016,03,11,14,38,8.40
2016,03,11,14,39,6.80
2016,03,11,14,40,8.90
2016,03,11,14,41,8.20
2016,03,11,14,42,7.80
2016,03,11,14,43,9.20
2016,03,11,14,44,4.10
2016,03,11,14,45,5.10
2016,03,11,14,46,4.80
2016,03,11,14,47,7.40
2016,03,11,14,48,4.70
2016,03,11,14,49,3.50
2016,03,11,14,50,3.70
2016,03,11,14,51,3.60
2016,03,11,14,52,4.20
2016,03,11,14,53,5.50
2016,03,11,14,54,8.50
2016,03,11,14,55,3.70
2016,03,11,14,56,3.50
2016,03,11,14,57,4.50
2016,03,11,14,58,4.30
2016,03,11,14,59,4.70
2016,03,11,15,00,5.10
2016,03,11,15,01,4.50
2016,03,11,15,02,7.90
2016,03,11,15,03,4.40
2016,03,11,15,05,2.80
2016,03,11,15,06,5.50
2016,03,11,15,07,3.90
2016,03,11,15,08,4.80
2016,03,11,15,09,5.30
2016,03,11,15,10,3.80
2016,03,11,15,11,3.50
2016,03,11,15,12,3.50
2016,03,11,15,13,7.50
2016,03,11,15,14,5.40
2016,03,11,15,15,6.30
2016,03,11,15,16,4.80
2016,03,11,15,17,6.60
2016,03,11,15,18,5.20
2016,03,11,15,19,7.50
2016,03,11,15,20,5.70
2016,03,11,15,21,7.90
2016,03,11,15,22,4.70
2016,03,11,15,23,6.10
2016,03,11,15,24,8.70
2016,03,11,15,25,7.10
2016,03,11,15,26,7.00
2016,03,11,15,27,3.50
2016,03,11,15,28,7.20
2016,03,11,15,29,7.20
2016,03,11,15,30,7.90
2016,03,11,15,31,4.40
2016,03,11,15,32,5.30
2016,03,11,15,33,6.60
2016,03,11,15,34,3.50
2016,03,11,15,35,3.20
2016,03,11,15,36,2.90
2016,03,11,15,37,2.50
2016,03,11,15,38,6.80
2016,03,11,15,39,3.70
2016,03,11,15,40,3.00
2016,03,11,15,41,3.50
2016,03,11,15,42,2.40
2016,03,11,15,43,5.80
2016,03,11,15,44,5.80
2016,03,11,15,45,2.30
2016,03,11,15,46,6.10
2016,03,11,15,47,4.10
2016,03,11,15,49,3.80
2016,03,11,15,50,4.00
2016,03,11,15,51,4.30
2016,03,11,15,53,3.50
2016,03,11,15,54,5.30
2016,03,11,15,55,8.30
2016,03,11,15,56,4.20
2016,03,11,15,57,6.20
2016,03,11,15,58,4.20
2016,03,11,15,59,3.80
2016,03,11,16,00,7.20
2016,03,11,16,01,6.00
2016,03,11,16,02,4.80
2016,03,11,16,03,6.60
2016,03,11,16,04,6.10
2016,03,11,16,05,5.30
2016,03,11,16,06,6.00
2016,03,11,16,07,4.80
2016,03,11,16,08,7.00
2016,03,11,16,09,4.80
2016,03,11,16,10,2.60
2016,03,11,16,11,2.10
2016,03,11,16,12,2.00
2016,03,11,16,13,2.70
2016,03,11,16,14,6.10
2016,03,11,16,15,6.70
2016,03,11,16,16,4.30
2016,03,11,16,17,5.20
2016,03,11,16,18,4.00
2016,03,11,16,19,6.30
2016,03,11,16,20,5.60
2016,03,11,16,21,4.80
2016,03,11,16,22,5.30
2016,03,11,16,23,3.30
2016,03,11,16,24,3.20
2016,03,11,16,25,3.20
2016,03,11,16,26,4.50
2016,03,11,16,27,3.90
2016,03,11,16,28,2.70
2016,03,11,16,29,6.00
2016,03,11,16,30,4.70
2016,03,11,16,31,3.60
2016,03,11,16,32,3.30
2016,03,11,16,33,4.50
2016,03,11,16,34,6.00
2016,03,11,16,35,6.60
2016,03,11,16,36,6.90
2016,03,11,16,37,4.60
2016,03,11,16,38,2.30
2016,03,11,16,39,2.40
2016,03,11,16,40,5.20
2016,03,11,16,41,5.40
2016,03,11,16,42,3.60
2016,03,11,16,43,2.90
2016,03,11,16,44,4.90
2016,03,11,16,45,3.00
2016,03,11,16,46,2.80
2016,03,11,16,47,4.90
2016,03,11,16,48,6.10
2016,03,11,16,49,5.60
2016,03,11,16,50,3.90
2016,03,11,16,51,6.40
2016,03,11,16,52,4.50
2016,03,11,16,53,5.70
2016,03,11,16,54,1.60
2016,03,11,16,57,4.80
2016,03,11,16,58,3.60
2016,03,11,16,59,2.30
2016,03,11,17,00,3.80
2016,03,11,17,01,5.90
2016,03,11,17,02,3.50
2016,03,11,17,03,5.60
2016,03,11,17,04,5.80
2016,03,11,17,05,6.20
2016,03,11,17,06,5.50
2016,03,11,17,07,5.40
2016,03,11,17,08,4.00
2016,03,11,17,09,5.60
2016,03,11,17,10,2.80
2016,03,11,17,11,4.90
2016,03,11,17,12,6.10
2016,03,11,17,13,5.80
2016,03,11,17,14,6.50
2016,03,11,17,15,6.40
2016,03,11,17,16,5.00
2016,03,11,17,17,7.50
2016,03,11,17,18,6.30
2016,03,11,17,19,5.00
2016,03,11,17,20,7.50
2016,03,11,17,21,8.40
2016,03,11,17,22,4.60
2016,03,11,17,23,7.40
2016,03,11,17,24,7.70
2016,03,11,17,25,7.10
2016,03,11,17,26,6.00
2016,03,11,17,27,5.20
2016,03,11,17,28,7.60
2016,03,11,17,29,7.20
2016,03,11,17,30,4.90
2016,03,11,17,31,4.60
2016,03,11,17,32,6.00
2016,03,11,17,33,4.50
2016,03,11,17,35,6.00
2016,03,11,17,36,6.60
2016,03,11,17,37,4.50
2016,03,11,17,38,7.50
2016,03,11,17,39,7.20
2016,03,11,17,40,6.80
2016,03,11,17,41,4.40
2016,03,11,17,42,5.80
2016,03,11,17,43,6.00
2016,03,11,17,44,7.10
2016,03,11,17,45,5.30
2016,03,11,17,46,6.60
2016,03,11,17,47,5.30
2016,03,11,17,48,4.00
2016,03,11,17,49,3.50
2016,03,11,17,50,6.10
2016,03,11,17,51,6.60
2016,03,11,17,52,8.10
2016,03,11,17,53,11.10
2016,03,11,17,54,9.90
2016,03,11,17,55,10.20
2016,03,11,17,56,8.70
2016,03,11,17,57,6.20
2016,03,11,17,58,7.00
2016,03,11,17,59,8.10
2016,03,11,18,00,8.20
2016,03,11,18,01,10.30
2016,03,11,18,02,12.40